Regional Weather Roundup
Issued by NWS

Home | Current Version | Previous Version | Graphics & Text | Print | Product List | Glossary On
Versions: 1 2 3 4 5 6 7 8 9 10 11 12 13 14 15 16 17 18 19 20 21 22 23 24 25 26 27 28 29 30 31 32 33 34 35 36 37 38 39 40 41 42 43 44 45 46 47 48 49 50
000
ASUS43 KIND 252259
RWRIN

WEATHER ROUNDUP FOR INDIANA
NATIONAL WEATHER SERVICE INDIANAPOLIS IN
700 PM EDT SAT MAR 25 2017

NOTE: "FAIR" INDICATES FEW OR NO CLOUDS BELOW 12,000 FEET WITH NO
SIGNIFICANT WEATHER AND/OR OBSTRUCTIONS TO VISIBILITY.

* - STATION DOES NOT REPORT WEATHER SUCH AS PRECIPITATION OR FOG.

+ - STATION NOT QUALITY CONTROLLED BY THE NATIONAL WEATHER SERVICE.
    USE DATA WITH CAUTION...ESPECIALLY DEWPOINT AND RELATIVE
    HUMIDITY OBSERVATIONS.

INZ001>003-010>013-019-020-260000-
NORTHWEST INDIANA

CITY           SKY/WX    TMP DP  RH WIND       PRES   REMARKS
GARY /AIRPORT/ LGT RAIN  48  46  93 NW5       29.97F
MONTICELLO +   CLOUDY    65  56  73 CALM      29.94S

$$

LMZ046-743>745-260000-
SOUTHERN LAKE MICHIGAN

STATION/POSITION TIME  TEMP    WIND        PRES    WAVE
                       AIR SEA DIR/SP/G            HT
                 (UTC) (F)     (DEG/KT/KT) (MB)    (FT)
BURNS HARBOR     2240   44     270/  7/ 12 1015.2S
MICHIGAN CITY    2230   58      90/ 15/ 17   N/A

$$

INZ004-005-014>016-021>024-260000-
NORTH CENTRAL INDIANA

CITY           SKY/WX    TMP DP  RH WIND       PRES   REMARKS
GOSHEN         CLOUDY    53  44  71 E17       30.01S
PERU/GRISSOM   LGT RAIN  63  61  94 W13       29.93F
SOUTH BEND     LGT RAIN  54  51  90 E12       30.03R FOG

$$

INZ006>009-017-018-025>027-260000-
NORTHEAST INDIANA

CITY           SKY/WX    TMP DP  RH WIND       PRES   REMARKS
ANGOLA *+      PTSUNNY   46  45  93 E13       30.07S
FORT WAYNE     CLOUDY    52  43  71 E22       30.02F
KENDALLVILLE + CLOUDY    47  42  82 E16G23    30.04F

$$

INZ028-029-035-036-043>045-051>053-260000-
WEST CENTRAL INDIANA

CITY           SKY/WX    TMP DP  RH WIND       PRES   REMARKS
CRAWFORDSVL +  CLOUDY    65  54  66 CALM      29.93S
LAFAYETTE      CLOUDY    65  55  70 CALM      29.93S
TERRE HAUTE    CLOUDY    64  56  75 S6        29.92S

$$

INZ030>032-037>040-046>048-054>057-064-065-260000-
CENTRAL INDIANA

CITY           SKY/WX    TMP DP  RH WIND       PRES   REMARKS
CP ATTERBURY + CLOUDY    72  50  46 W14G23    29.96R
COLUMBUS       SUNNY     72  50  46 S21G30    29.95S
INDIANAPOLIS   LGT RAIN  62  57  83 SW8       29.94R
-EAGLE CREEK   HVY RAIN  65  56  72 S9G21     29.95R VSB 1
KOKOMO +       CLOUDY    68  55  63 W10       29.96S
SHELBYVILLE    PTSUNNY   75  49  39 S16       29.94S

$$

INZ033-034-041-042-049-050-058-059-260000-
EAST CENTRAL INDIANA

CITY           SKY/WX    TMP DP  RH WIND       PRES   REMARKS
MUNCIE         CLOUDY    74  50  42 SE7       29.96F
RICHMOND +     CLOUDY    68  52  56 SE13      30.01F

$$

INZ060-061-067>069-081>083-085>088-260000-
SOUTHWEST INDIANA

CITY           SKY/WX    TMP DP  RH WIND       PRES   REMARKS
EVANSVILLE     CLOUDY    68  51  54 S14G20    29.91F
HUNTINGBURG *+ CLOUDY    68  55  63 S9        29.93F

$$

INZ062-063-066-070>080-084-089>092-260000-
SOUTH CENTRAL AND SOUTHEAST INDIANA

CITY           SKY/WX    TMP DP  RH WIND       PRES   REMARKS
BLOOMINGTON    PTSUNNY   62  56  80 SE7       29.95F
MADISON *+     CLOUDY    73  45  35 S12       29.99F
SEYMOUR +      CLOUDY    73  50  43 S18       29.95S

$$





USA.gov is the U.S. government's official web portal to all federal, state and local government web resources and services.